QPF
0.12 0.14 0.13 0.11 0.10 0.11 0.12 0.12 0.12 0.12 0.10 0.06 0.04 0.04 0.03 0.01 0.03 0.06 0.09 0.06 0.03 0.04 0.05 0.05 0.04 0.03 0.05 0.05 0.04 0.03 0.03 0.02 0.02 0.02 0.02 0.03 0.03 0.03 0.03 0.04 0.04 0.02 0.01
0.08 0.10 0.10 0.08 0.07 0.08 0.09 0.09 0.09 0.10 0.10 0.06 0.04 0.04 0.04 0.03 0.02 0.04 0.08 0.08 0.05 0.04 0.04 0.06 0.07 0.06 0.06 0.06 0.06 0.06 0.05 0.04 0.04 0.03 0.03 0.03 0.03 0.03 0.03 0.03 0.04 0.03 0.02
0.06 0.06 0.07 0.07 0.06 0.07 0.07 0.06 0.06 0.08 0.08 0.07 0.07 0.07 0.06 0.06 0.04 0.03 0.05 0.06 0.05 0.05 0.04 0.05 0.07 0.07 0.08 0.08 0.08 0.07 0.06 0.06 0.06 0.05 0.04 0.04 0.04 0.04 0.03 0.03 0.03 0.03 0.02
0.05 0.04 0.04 0.04 0.05 0.05 0.05 0.05 0.06 0.08 0.08 0.08 0.08 0.08 0.07 0.08 0.07 0.05 0.04 0.04 0.04 0.04 0.06 0.05 0.06 0.07 0.08 0.10 0.12 0.11 0.09 0.08 0.07 0.06 0.05 0.05 0.05 0.05 0.04 0.04 0.03 0.02 0.02
0.03 0.03 0.03 0.03 0.03 0.03 0.03 0.03 0.04 0.05 0.06 0.06 0.04 0.05 0.05 0.06 0.07 0.06 0.06 0.04 0.03 0.03 0.04 0.06 0.05 0.05 0.06 0.08 0.11 0.12 0.11 0.11 0.09 0.08 0.07 0.06 0.06 0.06 0.06 0.05 0.04 0.02 0.02
0.02 0.02 0.03 0.02 0.01 0.02 0.02 0.02 0.03 0.03 0.03 0.04 0.03 0.05 0.05 0.04 0.03 0.04 0.03 0.03 0.03 0.02 0.02 0.04 0.07 0.06 0.06 0.07 0.08 0.10 0.11 0.11 0.11 0.10 0.09 0.08 0.07 0.07 0.06 0.06 0.05 0.04 0.02
0.01 0.01 0.01 0.02 0.01 0.01 0.01 0.01 0.01 0.02 0.03 0.03 0.04 0.04 0.04 0.03 0.03 0.03 0.02 0.03 0.03 0.03 0.03 0.05 0.08 0.09 0.09 0.07 0.06 0.08 0.11 0.14 0.14 0.13 0.12 0.11 0.09 0.09 0.08 0.07 0.06 0.05 0.04
0.00 0.01 0.01 0.01 0.01 0.01 0.01 0.01 0.01 0.01 0.01 0.02 0.03 0.03 0.03 0.04 0.03 0.03 0.03 0.02 0.03 0.05 0.06 0.05 0.06 0.09 0.10 0.11 0.07 0.07 0.10 0.13 0.16 0.17 0.16 0.13 0.11 0.11 0.09 0.07 0.06 0.05 0.04
0.00 0.00 0.00 0.01 0.01 0.01 0.01 0.01 0.01 0.01 0.01 0.01 0.01 0.01 0.02 0.03 0.04 0.04 0.03 0.02 0.03 0.04 0.05 0.06 0.06 0.08 0.09 0.12 0.12 0.11 0.10 0.10 0.12 0.14 0.15 0.14 0.12 0.11 0.10 0.09 0.08 0.07 0.06
0.00 0.00 0.00 0.01 0.01 0.01 0.01 0.01 0.00 0.00 0.01 0.01 0.01 0.01 0.01 0.02 0.02 0.03 0.03 0.02 0.02 0.03 0.04 0.04 0.05 0.06 0.07 0.09 0.11 0.10 0.09 0.07 0.08 0.11 0.13 0.15 0.13 0.12 0.11 0.12 0.12 0.11 0.07
0.00 0.00 0.00 0.00 0.00 0.00 0.00 0.00 0.00 0.00 0.00 0.01 0.01 0.01 0.01 0.01 0.01 0.02 0.02 0.03 0.02 0.02 0.03 0.03 0.03 0.04 0.04 0.05 0.06 0.06 0.07 0.07 0.06 0.08 0.12 0.16 0.16 0.14 0.13 0.13 0.14 0.14 0.12
0.00 0.00 0.00 0.00 0.00 0.00 0.00 0.00 0.00 0.00 0.00 0.01 0.01 0.01 0.01 0.01 0.01 0.01 0.01 0.02 0.02 0.02 0.02 0.02 0.02 0.02 0.02 0.03 0.03 0.04 0.05 0.06 0.06 0.06 0.08 0.11 0.13 0.14 0.14 0.14 0.14 0.14 0.15
0.00 0.00 0.00 0.00 0.00 0.00 0.00 0.00 0.00 0.00 0.00 0.01 0.01 0.01 0.00 0.00 0.00 0.00 0.01 0.01 0.01 0.01 0.02 0.02 0.02 0.01 0.01 0.02 0.03 0.03 0.03 0.04 0.04 0.05 0.05 0.06 0.08 0.10 0.12 0.12 0.13 0.14 0.14
0.00 0.00 0.00 0.00 0.00 0.00 0.00 0.00 0.00 0.01 0.01 0.01 0.00 0.01 0.01 0.00 0.00 0.00 0.00 0.01 0.01 0.01 0.02 0.02 0.01 0.01 0.01 0.01 0.02 0.03 0.02 0.01 0.02 0.03 0.03 0.03 0.04 0.06 0.07 0.08 0.09 0.11 0.12
0.00 0.00 0.00 0.00 0.00 0.00 0.00 0.00 0.01 0.01 0.01 0.01 0.01 0.01 0.01 0.00 0.00 0.00 0.00 0.00 0.01 0.01 0.02 0.02 0.01 0.01 0.01 0.01 0.02 0.02 0.02 0.02 0.01 0.01 0.01 0.02 0.02 0.02 0.03 0.04 0.05 0.07 0.08
0.00 0.00 0.00 0.00 0.00 0.00 0.00 0.00 0.01 0.01 0.01 0.01 0.01 0.01 0.01 0.00 0.00 0.00 0.00 0.00 0.01 0.01 0.01 0.01 0.01 0.01 0.01 0.01 0.01 0.01 0.02 0.03 0.02 0.01 0.00 0.01 0.01 0.01 0.01 0.02 0.03 0.04 0.05
0.00 0.00 0.00 0.00 0.00 0.00 0.00 0.00 0.01 0.00 0.00 0.01 0.00 0.00 0.01 0.01 0.01 0.00 0.00 0.00 0.01 0.01 0.01 0.01 0.01 0.01 0.01 0.01 0.01 0.01 0.01 0.01 0.02 0.01 0.01 0.00 0.00 0.00 0.01 0.01 0.01 0.02 0.03
0.00 0.00 0.00 0.00 0.00 0.00 0.00 0.00 0.00 0.00 0.00 0.00 0.00 0.00 0.00 0.00 0.01 0.00 0.00 0.00 0.00 0.01 0.01 0.00 0.00 0.01 0.01 0.01 0.01 0.01 0.00 0.00 0.01 0.01 0.02 0.01 0.01 0.01 0.00 0.00 0.01 0.01 0.02
0.00 0.00 0.00 0.00 0.00 0.00 0.00 0.00 0.00 0.00 0.00 0.00 0.00 0.00 0.00 0.00 0.01 0.01 0.01 0.01 0.01 0.00 0.01 0.01 0.00 0.01 0.01 0.01 0.01 0.01 0.01 0.01 0.00 0.00 0.01 0.02 0.02 0.02 0.01 0.00 0.00 0.01 0.01
0.00 0.00 0.00 0.00 0.00 0.00 0.01 0.00 0.00 0.00 0.00 0.00 0.00 0.00 0.00 0.01 0.01 0.01 0.01 0.01 0.01 0.01 0.01 0.01 0.01 0.01 0.01 0.01 0.02 0.01 0.01 0.02 0.01 0.00 0.00 0.01 0.01 0.01 0.01 0.01 0.01 0.01 0.01
0.00 0.00 0.00 0.00 0.01 0.01 0.01 0.00 0.00 0.00 0.01 0.00 0.00 0.00 0.01 0.00 0.00 0.00 0.01 0.01 0.01 0.01 0.01 0.01 0.01 0.01 0.01 0.02 0.02 0.02 0.02 0.02 0.01 0.01 0.01 0.01 0.01 0.01 0.02 0.01 0.00 0.00 0.01
0.00 0.00 0.01 0.01 0.01 0.00 0.01 0.00 0.00 0.00 0.00 0.00 0.01 0.01 0.01 0.00 0.00 0.00 0.00 0.00 0.00 0.00 0.01 0.01 0.01 0.01 0.02 0.02 0.03 0.03 0.03 0.03 0.02 0.02 0.02 0.01 0.00 0.01 0.02 0.02 0.01 0.01 0.01
0.01 0.01 0.01 0.01 0.01 0.01 0.00 0.00 0.00 0.00 0.00 0.00 0.01 0.01 0.01 0.00 0.00 0.01 0.01 0.00 0.00 0.00 0.00 0.00 0.00 0.01 0.01 0.02 0.04 0.03 0.04 0.04 0.03 0.02 0.03 0.01 0.00 0.01 0.01 0.01 0.01 0.01 0.01
0.02 0.01 0.01 0.01 0.01 0.01 0.00 0.00 0.00 0.00 0.00 0.00 0.00 0.01 0.01 0.01 0.01 0.01 0.01 0.01 0.01 0.01 0.01 0.01 0.01 0.01 0.01 0.02 0.03 0.03 0.03 0.03 0.02 0.02 0.03 0.02 0.01 0.01 0.01 0.01 0.01 0.01 0.00
0.01 0.01 0.01 0.01 0.01 0.01 0.01 0.00 0.00 0.00 0.00 0.00 0.00 0.01 0.01 0.01 0.01 0.00 0.00 0.01 0.01 0.01 0.00 0.00 0.00 0.01 0.00 0.00 0.01 0.01 0.01 0.01 0.01 0.01 0.03 0.03 0.01 0.02 0.01 0.01 0.01 0.01 0.00
0.01 0.01 0.01 0.01 0.01 0.01 0.01 0.00 0.00 0.00 0.00 0.00 0.00 0.00 0.00 0.00 0.00 0.00 0.00 0.01 0.01 0.01 0.01 0.01 0.01 0.01 0.01 0.01 0.01 0.01 0.01 0.01 0.02 0.01 0.02 0.05 0.03 0.04 0.03 0.01 0.02 0.02 0.02
MSLP
1015.74 1015.86 1015.95 1016.05 1016.19 1016.38 1016.61 1016.86 1017.09 1017.25 1017.35 1017.36 1017.33 1017.27 1017.25 1017.29 1017.41 1017.63 1017.91 1018.24 1018.57 1018.89 1019.17 1019.43 1019.67 1019.91 1020.16 1020.43 1020.71 1020.99 1021.26 1021.50 1021.72 1021.91 1022.11 1022.31 1022.54 1022.80 1023.08 1023.37 1023.64 1023.88 1024.08
1015.64 1015.75 1015.84 1015.95 1016.10 1016.30 1016.54 1016.80 1017.04 1017.24 1017.36 1017.42 1017.42 1017.40 1017.38 1017.41 1017.50 1017.66 1017.88 1018.15 1018.44 1018.74 1019.03 1019.32 1019.60 1019.88 1020.17 1020.45 1020.73 1021.00 1021.24 1021.46 1021.65 1021.85 1022.05 1022.27 1022.53 1022.82 1023.12 1023.43 1023.71 1023.95 1024.15
1015.63 1015.74 1015.84 1015.95 1016.10 1016.30 1016.53 1016.78 1017.02 1017.22 1017.37 1017.46 1017.49 1017.49 1017.48 1017.50 1017.55 1017.66 1017.83 1018.04 1018.28 1018.56 1018.85 1019.15 1019.46 1019.78 1020.10 1020.40 1020.68 1020.93 1021.15 1021.34 1021.51 1021.69 1021.90 1022.14 1022.41 1022.73 1023.06 1023.39 1023.70 1023.96 1024.18
1015.71 1015.82 1015.93 1016.05 1016.20 1016.38 1016.59 1016.81 1017.03 1017.21 1017.36 1017.45 1017.50 1017.52 1017.53 1017.54 1017.58 1017.65 1017.76 1017.92 1018.12 1018.36 1018.64 1018.95 1019.28 1019.62 1019.96 1020.27 1020.55 1020.79 1020.98 1021.15 1021.30 1021.46 1021.66 1021.90 1022.20 1022.53 1022.89 1023.25 1023.58 1023.87 1024.12
1015.83 1015.97 1016.10 1016.24 1016.39 1016.55 1016.72 1016.89 1017.06 1017.21 1017.33 1017.42 1017.48 1017.52 1017.54 1017.57 1017.60 1017.64 1017.72 1017.83 1017.98 1018.18 1018.43 1018.73 1019.06 1019.41 1019.75 1020.07 1020.34 1020.57 1020.74 1020.88 1021.01 1021.16 1021.35 1021.59 1021.89 1022.23 1022.61 1022.99 1023.35 1023.67 1023.96
1015.97 1016.15 1016.32 1016.49 1016.64 1016.78 1016.91 1017.03 1017.13 1017.22 1017.30 1017.37 1017.43 1017.49 1017.54 1017.58 1017.62 1017.66 1017.72 1017.79 1017.90 1018.05 1018.26 1018.52 1018.83 1019.16 1019.50 1019.81 1020.07 1020.29 1020.45 1020.57 1020.69 1020.82 1020.99 1021.22 1021.51 1021.85 1022.23 1022.62 1023.01 1023.36 1023.68
1016.11 1016.34 1016.57 1016.77 1016.95 1017.08 1017.17 1017.23 1017.26 1017.29 1017.32 1017.35 1017.41 1017.48 1017.56 1017.63 1017.69 1017.73 1017.77 1017.81 1017.88 1017.98 1018.13 1018.34 1018.61 1018.90 1019.21 1019.50 1019.76 1019.96 1020.12 1020.24 1020.34 1020.46 1020.62 1020.83 1021.10 1021.43 1021.80 1022.19 1022.58 1022.95 1023.30
1016.24 1016.53 1016.82 1017.08 1017.28 1017.42 1017.48 1017.49 1017.47 1017.43 1017.40 1017.41 1017.45 1017.53 1017.63 1017.73 1017.81 1017.87 1017.89 1017.91 1017.92 1017.97 1018.05 1018.20 1018.40 1018.65 1018.92 1019.18 1019.42 1019.62 1019.78 1019.90 1020.00 1020.12 1020.26 1020.46 1020.71 1021.02 1021.37 1021.74 1022.12 1022.49 1022.84
1016.36 1016.71 1017.06 1017.38 1017.62 1017.77 1017.84 1017.81 1017.74 1017.65 1017.59 1017.56 1017.59 1017.67 1017.78 1017.90 1018.00 1018.07 1018.08 1018.07 1018.04 1018.02 1018.03 1018.10 1018.23 1018.41 1018.63 1018.87 1019.09 1019.28 1019.44 1019.57 1019.68 1019.80 1019.94 1020.12 1020.35 1020.63 1020.95 1021.29 1021.65 1022.01 1022.35
1016.49 1016.88 1017.28 1017.65 1017.94 1018.12 1018.19 1018.16 1018.07 1017.95 1017.85 1017.81 1017.82 1017.90 1018.02 1018.15 1018.26 1018.33 1018.33 1018.29 1018.21 1018.12 1018.06 1018.05 1018.10 1018.22 1018.38 1018.58 1018.78 1018.97 1019.13 1019.27 1019.39 1019.51 1019.65 1019.82 1020.03 1020.29 1020.57 1020.89 1021.21 1021.54 1021.87
1016.62 1017.04 1017.47 1017.88 1018.20 1018.41 1018.51 1018.49 1018.40 1018.28 1018.17 1018.11 1018.12 1018.20 1018.32 1018.46 1018.57 1018.62 1018.61 1018.54 1018.41 1018.27 1018.15 1018.06 1018.04 1018.09 1018.19 1018.34 1018.51 1018.68 1018.83 1018.97 1019.10 1019.23 1019.37 1019.53 1019.73 1019.96 1020.23 1020.51 1020.81 1021.10 1021.40
1016.78 1017.18 1017.62 1018.03 1018.38 1018.62 1018.74 1018.75 1018.68 1018.58 1018.48 1018.43 1018.45 1018.52 1018.64 1018.78 1018.88 1018.93 1018.90 1018.81 1018.65 1018.47 1018.29 1018.14 1018.06 1018.04 1018.08 1018.17 1018.29 1018.42 1018.55 1018.68 1018.80 1018.92 1019.06 1019.22 1019.42 1019.63 1019.88 1020.14 1020.42 1020.69 1020.96
1016.93 1017.30 1017.71 1018.11 1018.45 1018.71 1018.86 1018.90 1018.87 1018.80 1018.73 1018.70 1018.73 1018.82 1018.94 1019.07 1019.17 1019.21 1019.18 1019.07 1018.89 1018.69 1018.47 1018.29 1018.15 1018.07 1018.05 1018.07 1018.13 1018.20 1018.29 1018.38 1018.47 1018.58 1018.70 1018.86 1019.05 1019.26 1019.50 1019.76 1020.01 1020.27 1020.52
1017.08 1017.38 1017.74 1018.10 1018.42 1018.68 1018.84 1018.92 1018.93 1018.91 1018.88 1018.89 1018.94 1019.04 1019.17 1019.30 1019.40 1019.44 1019.40 1019.30 1019.13 1018.92 1018.69 1018.48 1018.31 1018.18 1018.09 1018.04 1018.02 1018.02 1018.04 1018.06 1018.11 1018.18 1018.28 1018.42 1018.60 1018.82 1019.06 1019.31 1019.57 1019.82 1020.05
1017.19 1017.42 1017.71 1018.02 1018.30 1018.55 1018.72 1018.83 1018.88 1018.91 1018.93 1018.98 1019.06 1019.17 1019.31 1019.44 1019.54 1019.59 1019.57 1019.48 1019.33 1019.13 1018.92 1018.71 1018.51 1018.34 1018.20 1018.08 1017.97 1017.88 1017.81 1017.75 1017.72 1017.74 1017.80 1017.91 1018.08 1018.29 1018.54 1018.80 1019.06 1019.31 1019.53
1017.27 1017.44 1017.65 1017.90 1018.14 1018.36 1018.53 1018.66 1018.75 1018.82 1018.89 1018.97 1019.08 1019.21 1019.36 1019.49 1019.60 1019.65 1019.65 1019.59 1019.47 1019.31 1019.12 1018.93 1018.73 1018.54 1018.34 1018.15 1017.97 1017.78 1017.61 1017.46 1017.35 1017.29 1017.30 1017.37 1017.51 1017.71 1017.95 1018.21 1018.48 1018.73 1018.95
1017.30 1017.42 1017.59 1017.78 1017.98 1018.17 1018.34 1018.48 1018.59 1018.69 1018.79 1018.90 1019.03 1019.17 1019.32 1019.45 1019.56 1019.62 1019.64 1019.61 1019.53 1019.42 1019.27 1019.11 1018.92 1018.72 1018.50 1018.26 1018.00 1017.73 1017.47 1017.23 1017.03 1016.89 1016.83 1016.85 1016.95 1017.11 1017.33 1017.58 1017.83 1018.07 1018.29
1017.28 1017.39 1017.53 1017.69 1017.87 1018.03 1018.19 1018.33 1018.45 1018.57 1018.69 1018.81 1018.94 1019.08 1019.22 1019.34 1019.44 1019.51 1019.54 1019.54 1019.50 1019.44 1019.34 1019.22 1019.06 1018.87 1018.63 1018.36 1018.06 1017.73 1017.40 1017.08 1016.80 1016.59 1016.45 1016.40 1016.44 1016.55 1016.71 1016.92 1017.14 1017.37 1017.57
1017.23 1017.35 1017.50 1017.65 1017.81 1017.96 1018.11 1018.24 1018.36 1018.48 1018.59 1018.71 1018.83 1018.95 1019.06 1019.17 1019.26 1019.32 1019.37 1019.39 1019.39 1019.36 1019.31 1019.23 1019.11 1018.94 1018.72 1018.45 1018.12 1017.76 1017.39 1017.02 1016.68 1016.40 1016.19 1016.06 1016.02 1016.05 1016.14 1016.28 1016.44 1016.62 1016.80
1017.13 1017.30 1017.48 1017.64 1017.80 1017.95 1018.08 1018.20 1018.30 1018.40 1018.50 1018.59 1018.69 1018.78 1018.87 1018.95 1019.02 1019.07 1019.12 1019.16 1019.18 1019.19 1019.18 1019.14 1019.06 1018.93 1018.74 1018.48 1018.17 1017.81 1017.42 1017.02 1016.65 1016.32 1016.05 1015.84 1015.71 1015.64 1015.63 1015.67 1015.75 1015.86 1015.99
1016.99 1017.22 1017.43 1017.62 1017.79 1017.93 1018.05 1018.15 1018.23 1018.30 1018.37 1018.44 1018.50 1018.57 1018.63 1018.68 1018.73 1018.78 1018.82 1018.86 1018.90 1018.94 1018.96 1018.95 1018.91 1018.81 1018.66 1018.44 1018.15 1017.82 1017.44 1017.05 1016.67 1016.31 1015.98 1015.71 1015.48 1015.31 1015.19 1015.11 1015.08 1015.09 1015.15
1016.80 1017.08 1017.33 1017.55 1017.72 1017.86 1017.96 1018.04 1018.09 1018.14 1018.18 1018.21 1018.25 1018.29 1018.33 1018.36 1018.40 1018.44 1018.48 1018.52 1018.57 1018.62 1018.65 1018.67 1018.65 1018.58 1018.46 1018.28 1018.03 1017.74 1017.40 1017.04 1016.67 1016.30 1015.94 1015.61 1015.30 1015.02 1014.78 1014.58 1014.43 1014.34 1014.31
1016.53 1016.85 1017.13 1017.36 1017.53 1017.66 1017.74 1017.80 1017.83 1017.85 1017.87 1017.89 1017.91 1017.94 1017.97 1018.00 1018.03 1018.06 1018.10 1018.15 1018.19 1018.24 1018.27 1018.29 1018.28 1018.23 1018.12 1017.97 1017.77 1017.51 1017.22 1016.90 1016.56 1016.20 1015.83 1015.46 1015.09 1014.73 1014.38 1014.07 1013.80 1013.60 1013.48
1016.18 1016.52 1016.79 1017.02 1017.18 1017.29 1017.36 1017.40 1017.41 1017.42 1017.43 1017.45 1017.47 1017.50 1017.54 1017.58 1017.62 1017.66 1017.70 1017.74 1017.77 1017.80 1017.82 1017.82 1017.79 1017.73 1017.62 1017.48 1017.30 1017.09 1016.84 1016.56 1016.26 1015.93 1015.58 1015.20 1014.80 1014.39 1013.97 1013.56 1013.20 1012.90 1012.70
1015.75 1016.06 1016.33 1016.53 1016.67 1016.77 1016.82 1016.85 1016.86 1016.87 1016.88 1016.91 1016.95 1017.00 1017.05 1017.11 1017.17 1017.22 1017.26 1017.29 1017.30 1017.30 1017.29 1017.24 1017.17 1017.08 1016.95 1016.80 1016.63 1016.44 1016.22 1015.99 1015.74 1015.45 1015.14 1014.78 1014.39 1013.96 1013.51 1013.05 1012.63 1012.26 1011.98
1015.23 1015.51 1015.74 1015.92 1016.04 1016.12 1016.17 1016.20 1016.21 1016.24 1016.27 1016.32 1016.38 1016.45 1016.53 1016.61 1016.68 1016.73 1016.77 1016.78 1016.77 1016.72 1016.66 1016.56 1016.43 1016.29 1016.12 1015.94 1015.76 1015.57 1015.38 1015.19 1014.99 1014.76 1014.50 1014.19 1013.84 1013.43 1012.99 1012.53 1012.08 1011.67 1011.34
Thickness
5742 5740 5738 5736 5735 5733 5732 5732 5731 5731 5731 5731 5731 5731 5731 5732 5731 5730 5728 5727 5726 5726 5725 5724 5723 5722 5721 5720 5720 5719 5719 5718 5717 5716 5716 5715 5714 5714 5713 5713 5712 5711 5711
5740 5738 5736 5735 5734 5732 5731 5731 5730 5729 5729 5729 5728 5729 5729 5729 5729 5727 5726 5724 5724 5724 5723 5722 5721 5720 5720 5719 5718 5718 5717 5717 5716 5715 5714 5714 5713 5713 5712 5712 5711 5710 5710
5738 5737 5735 5733 5732 5731 5731 5730 5729 5728 5727 5727 5726 5726 5726 5726 5726 5726 5725 5724 5723 5722 5722 5720 5720 5719 5718 5717 5717 5717 5716 5715 5715 5714 5713 5712 5712 5711 5711 5711 5710 5710 5709
5736 5735 5734 5731 5731 5730 5729 5728 5727 5725 5724 5724 5724 5725 5726 5725 5724 5724 5723 5722 5721 5721 5719 5719 5718 5717 5716 5716 5716 5716 5715 5714 5714 5713 5712 5711 5710 5710 5710 5709 5709 5709 5708
5735 5734 5732 5730 5730 5729 5728 5727 5724 5723 5721 5721 5722 5724 5724 5724 5723 5723 5722 5720 5719 5719 5718 5717 5716 5715 5714 5714 5714 5714 5713 5713 5712 5711 5710 5710 5709 5708 5708 5708 5707 5707 5707
5732 5731 5730 5729 5729 5727 5725 5723 5722 5722 5721 5720 5722 5723 5722 5723 5722 5721 5720 5719 5718 5717 5715 5714 5713 5712 5712 5711 5711 5711 5711 5711 5711 5710 5709 5708 5707 5706 5706 5706 5706 5705 5705
5731 5730 5729 5727 5726 5724 5722 5721 5720 5719 5719 5720 5717 5716 5719 5722 5721 5719 5718 5717 5716 5715 5714 5712 5711 5710 5709 5709 5709 5708 5708 5708 5708 5708 5707 5706 5705 5705 5704 5704 5704 5704 5704
5730 5730 5727 5726 5724 5722 5720 5720 5718 5715 5716 5718 5713 5709 5708 5710 5714 5718 5716 5713 5713 5712 5710 5710 5709 5708 5707 5707 5706 5705 5705 5705 5705 5704 5704 5704 5703 5703 5702 5702 5702 5703 5703
5729 5727 5726 5724 5723 5722 5719 5717 5716 5714 5711 5713 5713 5708 5701 5697 5703 5709 5711 5710 5709 5707 5707 5707 5706 5705 5704 5703 5703 5701 5701 5701 5701 5701 5701 5701 5701 5701 5700 5700 5700 5701 5701
5729 5727 5725 5723 5721 5720 5718 5716 5714 5712 5710 5708 5709 5709 5706 5702 5696 5696 5702 5705 5705 5704 5704 5704 5703 5701 5701 5700 5699 5698 5697 5697 5697 5697 5698 5698 5698 5698 5698 5698 5698 5699 5699
5728 5727 5724 5722 5720 5718 5716 5714 5712 5710 5708 5705 5703 5703 5703 5702 5699 5692 5689 5694 5698 5701 5701 5700 5699 5698 5697 5696 5695 5694 5693 5693 5693 5693 5694 5695 5695 5696 5696 5696 5696 5697 5697
5727 5725 5723 5720 5718 5716 5714 5712 5709 5707 5705 5702 5700 5699 5697 5695 5692 5691 5687 5687 5689 5693 5696 5696 5695 5694 5693 5692 5691 5689 5688 5688 5687 5688 5689 5690 5691 5692 5693 5694 5694 5694 5694
5725 5723 5723 5719 5716 5714 5712 5709 5707 5704 5702 5699 5696 5695 5694 5693 5692 5689 5685 5683 5683 5686 5690 5692 5692 5690 5689 5687 5685 5684 5683 5682 5682 5682 5683 5684 5686 5687 5688 5690 5691 5691 5692
5725 5723 5720 5718 5715 5712 5711 5707 5705 5702 5699 5696 5695 5692 5690 5689 5688 5686 5682 5678 5674 5676 5680 5683 5686 5686 5684 5682 5680 5678 5678 5677 5677 5677 5677 5678 5680 5682 5683 5684 5686 5687 5688
5724 5721 5719 5716 5713 5710 5708 5705 5701 5699 5697 5694 5691 5689 5686 5685 5684 5683 5680 5677 5670 5665 5666 5673 5675 5678 5678 5676 5674 5673 5672 5672 5672 5671 5672 5673 5674 5675 5677 5679 5680 5682 5684
5722 5719 5716 5714 5711 5708 5705 5702 5699 5697 5694 5691 5688 5685 5682 5681 5678 5677 5675 5673 5671 5665 5661 5666 5667 5670 5670 5669 5668 5667 5666 5666 5666 5667 5667 5668 5668 5669 5671 5673 5675 5676 5678
5719 5716 5714 5712 5709 5706 5703 5699 5697 5695 5691 5688 5686 5683 5679 5677 5673 5671 5670 5668 5666 5663 5658 5660 5663 5664 5663 5662 5661 5661 5660 5661 5661 5662 5663 5664 5664 5664 5665 5667 5669 5670 5672
5717 5715 5712 5709 5706 5704 5701 5697 5693 5692 5689 5685 5682 5679 5676 5674 5670 5667 5664 5662 5660 5659 5655 5652 5654 5656 5656 5657 5656 5655 5655 5656 5657 5658 5659 5660 5660 5660 5660 5661 5662 5664 5666
5715 5713 5710 5706 5703 5701 5698 5695 5692 5689 5686 5683 5680 5676 5673 5670 5665 5662 5659 5657 5655 5655 5652 5649 5648 5650 5651 5651 5650 5649 5649 5649 5650 5652 5653 5654 5654 5654 5654 5655 5656 5658 5660
5712 5710 5707 5704 5701 5699 5696 5693 5690 5686 5683 5680 5677 5674 5670 5666 5662 5659 5656 5653 5650 5647 5646 5644 5643 5643 5643 5645 5643 5640 5640 5641 5642 5644 5645 5647 5647 5648 5648 5649 5651 5652 5653
5711 5708 5705 5702 5699 5697 5694 5691 5687 5684 5680 5677 5674 5671 5668 5664 5660 5656 5652 5648 5645 5641 5638 5637 5636 5635 5635 5633 5632 5632 5630 5631 5633 5635 5636 5638 5639 5640 5640 5641 5643 5644 5646
5709 5706 5702 5699 5696 5695 5690 5686 5682 5679 5676 5673 5670 5667 5665 5661 5657 5653 5649 5645 5640 5636 5633 5630 5628 5626 5626 5626 5625 5623 5621 5620 5620 5625 5625 5627 5630 5632 5634 5636 5638 5639 5641
5706 5702 5699 5696 5693 5690 5686 5682 5677 5674 5671 5668 5666 5663 5661 5660 5655 5650 5646 5641 5637 5633 5629 5626 5623 5621 5620 5619 5618 5615 5613 5612 5612 5615 5614 5617 5620 5623 5627 5630 5632 5634 5635
5703 5700 5696 5694 5690 5687 5682 5677 5673 5669 5667 5665 5662 5660 5656 5653 5650 5646 5642 5639 5635 5632 5629 5625 5622 5620 5618 5616 5613 5610 5608 5607 5609 5610 5609 5609 5613 5615 5620 5622 5624 5626 5628
5701 5697 5694 5691 5687 5683 5678 5673 5668 5665 5663 5661 5660 5658 5654 5650 5647 5642 5637 5633 5630 5628 5627 5625 5622 5619 5615 5612 5608 5603 5601 5599 5601 5604 5605 5603 5606 5608 5611 5614 5618 5620 5621
5698 5694 5691 5688 5685 5681 5676 5670 5664 5662 5660 5658 5657 5655 5652 5647 5643 5637 5632 5629 5625 5623 5622 5620 5616 5614 5611 5609 5605 5599 5597 5594 5595 5597 5599 5597 5598 5597 5600 5606 5610 5612 5613